Bramble, Montserrat

6:47 AM AST on August 29, 2015 (GMT -0400)
Geralds | | Change Station
CLOSE
Current Station
Airport
Location: Geralds,
Elevation: 551 ft
Nearby Weather Stations

Elev 551 ft 16.79 °N, 62.19 °W | Updated 47 minutes ago

Haze
Haze
79 °F
Feels Like 79 °F
N
16
Wind Variable Wind from ESE

Today
High -- | Low -- °F
--% Chance of Precip.
Yesterday
High -- | Low -- °F
Precip. -- in
5:54 AM 6:24 PM
Full, 100% visible
Pressure 29.98 in
Visibility 6.2 miles
Clouds Mostly Cloudy 1800 ft
Dew Point 75 °F
Humidity 89%
Rainfall 0.00 in
Snow Depth Not available.
UV 0 out of 12
Pollen Not available.
Air Quality Not available.
Flu Activity Not available.
METAR TRPG 291000Z 11014KT 9999 HZ BKN018 26/24 Q1015
Pressure 29.98 in
Visibility 6.2 miles
Clouds Mostly Cloudy 1800 ft
Dew Point 75 °F
Humidity 89%
Rainfall 0.00 in
Snow Depth Not available.
UV 0 out of 12
Pollen Not available.
Air Quality Not available.
Flu Activity Not available.
METAR TRPG 291000Z 11014KT 9999 HZ BKN018 26/24 Q1015

10-Day Weather Forecast

×

Almanac

Astronomy

Aug. 29, 2015 Rise Set
Actual Time
Civil Twilight
Nautical Twilight
Astronomical Twilight
Moon
Length of Visible Light
Length of Day
Tomorrow will be .
, % of the Moon is Illuminated

Today's Extremes

Country Highs Country Lows

Community

WunderPhotos

Upload Photos

1,850,633 photos uploaded!

WunderBlogs® & News

Nearby

Air Quality

  Air Quality AQ Index Pollutant
Not available.

Snow Depth

Station Depth Elevation

Earthquake Activity

City Distance Mag. Time & Date
Minimum magnitude displayed is 2.5.

Coastal Water Temperatures

Place Temperature

Stations

Nearby Weather Stations

Station Location Temp. Windchill Dew Point Humidity Wind Precip. Elev Updated Type